Weather History for CYMX - November, 2013

Change the Weather History Date:

Tuesday, November 26, 2013

  Actual Average Record
Temperature  
Mean Temperature 32 °F -  
Max Temperature 35 °F 34 °F 53 °F (2001)
Min Temperature 30 °F 22 °F 5 °F (2005)
Degree Days  
Heating Degree Days 32    
Moisture  
Dew Point 25 °F    
Average Humidity 75    
Maximum Humidity 93    
Minimum Humidity 64    
Precipitation  
Precipitation 0.00 in - - ()
Sea Level Pressure  
Sea Level Pressure 30.12 in    
Wind  
Wind Speed 8 mph ()    
Max Wind Speed 15 mph    
Max Gust Speed 24 mph    
Visibility 10.2 miles    
Events Snow    
Averages and records for this station are not official NWS values.
T = Trace of Precipitation, MM = Missing Value Source: Averaged Metar Reports

Daily Weather History Graph

Daily Weather History Graph

Search for Another Location

Airport or City:

Trip Planner

Search our weather history database for the weather conditions in past years. The results will help you decide how hot, cold, wet, or windy it might be!

Date:

Astronomy

Nov. 26, 2013 Rise Set
Actual Time 7:10 AM EST 4:16 PM EST
Civil Twilight 6:37 AM EST 4:49 PM EST
Nautical Twilight 6:00 AM EST 5:26 PM EST
Astronomical Twilight 5:24 AM EST 6:01 PM EST
Moon No Moon Rise 12:39 PM EST (11/26)
Length of Visible Light 10h 11m
Length of Day
9h 05m
Last Quarter, 41% of the Moon is Illuminated
Nov 26
Last Quarter
Dec 2
New
Dec 9
First Quarter
Dec 17
Full
Dec 25
Last Quarter

Hourly Weather History & Observations

Time (EST) Temp. Windchill Dew Point Humidity Pressure Visibility Wind Dir Wind Speed Gust Speed Precip Events Conditions
12:00 AM 30.2 °F 20.8 °F 19.4 °F 64% 30.07 in 15.0 mi SW 11.5 mph 18.4 mph N/A Snow Light Snow
1:00 AM 30.2 °F 21.9 °F 21.2 °F 69% 30.07 in 25.0 mi SSW 9.2 mph - N/A Snow Light Snow
2:00 AM 32.0 °F 24.2 °F 21.2 °F 64% 30.07 in 15.0 mi SSW 9.2 mph - N/A Snow Light Snow
3:00 AM 32.0 °F 21.6 °F 21.2 °F 64% 30.07 in 25.0 mi SSW 15.0 mph 24.2 mph N/A Snow Light Snow
4:00 AM 32.0 °F 23.6 °F 21.2 °F 64% 30.08 in 25.0 mi SSW 10.4 mph 17.3 mph N/A Snow Light Snow
5:00 AM 32.0 °F 23.0 °F 23.0 °F 69% 30.09 in 15.0 mi SSW 11.5 mph 18.4 mph N/A Snow Light Snow
6:00 AM 30.2 °F 21.9 °F 24.8 °F 80% 30.10 in 8.0 mi SSW 9.2 mph - N/A Snow Light Snow
7:00 AM 30.2 °F 21.3 °F 24.8 °F 80% 30.12 in 10.0 mi SW 10.4 mph 18.4 mph N/A Snow Light Snow
8:00 AM 32.0 °F 24.8 °F 23.0 °F 69% 30.15 in 15.0 mi SSW 8.1 mph - N/A Snow Light Snow
9:00 AM 32.0 °F 23.6 °F 23.0 °F 69% 30.16 in 8.0 mi SW 10.4 mph - N/A Snow Light Snow
10:00 AM 33.8 °F 24.8 °F 24.8 °F 70% 30.17 in 15.0 mi SSW 12.7 mph - N/A Snow Light Snow
11:00 AM 33.8 °F 26.4 °F 24.8 °F 70% 30.15 in 15.0 mi SW 9.2 mph - N/A Snow Light Snow
12:00 PM 35.6 °F 27.5 °F 24.8 °F 65% 30.16 in 15.0 mi SSW 11.5 mph 17.3 mph N/A Snow Light Snow
1:00 PM 33.8 °F 27.7 °F 24.8 °F 70% 30.16 in 15.0 mi SW 6.9 mph - N/A   Overcast
2:00 PM 35.6 °F 29.9 °F 26.6 °F 70% 30.18 in 15.0 mi SSW 6.9 mph - N/A   Overcast
3:00 PM 35.6 °F 32.8 °F 24.8 °F 65% 30.16 in 15.0 mi South 3.5 mph - N/A   Overcast
4:00 PM 33.8 °F 29.6 °F 26.6 °F 75% 30.16 in 10.0 mi SSE 4.6 mph - N/A Snow Light Snow Showers
5:00 PM 33.8 °F 28.6 °F 26.6 °F 75% 30.14 in 10.0 mi East 5.8 mph - N/A Snow Light Snow Showers
6:00 PM 33.8 °F 29.6 °F 26.6 °F 75% 30.14 in 15.0 mi ENE 4.6 mph - N/A Snow Light Snow Showers
7:00 PM 33.8 °F 29.6 °F 28.4 °F 81% 30.14 in 4.0 mi SE 4.6 mph - N/A Snow Light Snow
7:29 PM 32.0 °F 25.6 °F 30.2 °F 93% 30.13 in 2.5 mi ESE 6.9 mph - N/A Snow Light Snow
8:00 PM 32.0 °F 26.4 °F 30.2 °F 93% 30.11 in 2.0 mi East 5.8 mph - N/A Snow Light Snow
9:00 PM 32.0 °F 24.8 °F 30.2 °F 93% 30.07 in 2.0 mi ESE 8.1 mph - N/A Snow Light Snow
10:00 PM 32.0 °F 24.2 °F 30.2 °F 93% 30.04 in 1.5 mi ESE 9.2 mph - N/A Snow Light Snow
11:00 PM 32.0 °F 24.8 °F 30.2 °F 93% 30.01 in 1.5 mi East 8.1 mph - N/A Snow Light Snow